| time (UTC) | temp F | wind direction | speed knots | gust knots | rain 1hr in | rain 24hr in | rain mn in | humidity % | barometer mb |
| 20260503212516 | 64 | 264 | 1.7 | 7.0 | 0.00 | 0.00 | 0.00 | 43 | 1018.2 |
| 20260503212017 | 64 | 236 | 2.6 | 7.0 | 0.00 | 0.00 | 0.00 | 42 | 1018.3 |
| 20260503211537 | 63 | 262 | 4.3 | 8.7 | 0.00 | 0.00 | 0.00 | 46 | 1018.3 |
| 20260503211015 | 64 | 277 | 4.3 | 8.7 | 0.00 | 0.00 | 0.00 | 42 | 1018.3 |
| 20260503210519 | 64 | 297 | 3.5 | 6.1 | 0.00 | 0.00 | 0.00 | 41 | 1018.3 |
| 20260503210035 | 64 | 262 | 0.9 | 7.0 | 0.00 | 0.00 | 0.00 | 44 | 1018.3 |
| 20260503205515 | 63 | 266 | 4.3 | 9.6 | 0.00 | 0.00 | 0.00 | 43 | 1018.4 |
| 20260503205015 | 63 | 309 | 4.3 | 9.6 | 0.00 | 0.00 | 0.00 | 40 | 1018.4 |
| 20260503204535 | 63 | 233 | 5.2 | 8.7 | 0.00 | 0.00 | 0.00 | 41 | 1018.5 |
| 20260503204015 | 63 | 307 | 3.5 | 7.0 | 0.00 | 0.00 | 0.00 | 43 | 1018.5 |
| 20260503203515 | 63 | 303 | 1.7 | 7.0 | 0.00 | 0.00 | 0.00 | 47 | 1018.6 |
| 20260503203035 | 63 | 319 | 2.6 | 7.8 | 0.00 | 0.00 | 0.00 | 43 | 1018.7 |
| 20260503202515 | 63 | 253 | 5.2 | 7.8 | 0.00 | 0.00 | 0.00 | 41 | 1018.9 |
| 20260503202013 | 63 | 229 | 1.7 | 9.6 | 0.00 | 0.00 | 0.00 | 47 | 1019.0 |
| 20260503201532 | 62 | 321 | 3.5 | 9.6 | 0.00 | 0.00 | 0.00 | 47 | 1019.1 |
| 20260503201015 | 62 | 318 | 4.3 | 9.6 | 0.00 | 0.00 | 0.00 | 42 | 1019.2 |
| 20260503200516 | 63 | 314 | 3.5 | 8.7 | 0.00 | 0.00 | 0.00 | 46 | 1019.3 |
| 20260503200034 | 62 | 257 | 2.6 | 11.3 | 0.00 | 0.00 | 0.00 | 47 | 1019.3 |
| 20260503195515 | 62 | 263 | 5.2 | 11.3 | 0.00 | 0.00 | 0.00 | 45 | 1019.4 |
| 20260503195015 | 63 | 278 | 4.3 | 8.7 | 0.00 | 0.00 | 0.00 | 43 | 1019.5 |
| 20260503194534 | 62 | 200 | 2.6 | 7.8 | 0.00 | 0.00 | 0.00 | 45 | 1019.5 |
| 20260503194015 | 62 | 253 | 2.6 | 7.8 | 0.00 | 0.00 | 0.00 | 43 | 1019.6 |
| 20260503193516 | 62 | 269 | 4.3 | 9.6 | 0.00 | 0.00 | 0.00 | 44 | 1019.6 |
| 20260503193039 | 62 | 304 | 4.3 | 9.6 | 0.00 | 0.00 | 0.00 | 43 | 1019.7 |
| 20260503192515 | 62 | 206 | 2.6 | 8.7 | 0.00 | 0.00 | 0.00 | 44 | 1019.7 |
| 20260503192015 | 62 | 175 | 4.3 | 8.7 | 0.00 | 0.00 | 0.00 | 46 | 1019.9 |
| 20260503191534 | 62 | 188 | 3.5 | 7.8 | 0.00 | 0.00 | 0.00 | 43 | 1019.8 |
| 20260503191015 | 62 | 285 | 2.6 | 9.6 | 0.00 | 0.00 | 0.00 | 47 | 1019.8 |
| 20260503190518 | 62 | 0 | 0.9 | 9.6 | 0.00 | 0.00 | 0.00 | 44 | 1019.9 |
| 20260503190044 | 61 | 269 | 2.6 | 9.6 | 0.00 | 0.00 | 0.00 | 46 | 1020.0 |
| 20260503185514 | 61 | 0 | 2.6 | 9.6 | 0.00 | 0.00 | 0.00 | 44 | 1019.9 |
| 20260503185015 | 61 | 288 | 5.2 | 9.6 | 0.00 | 0.00 | 0.00 | 47 | 1020.0 |
| 20260503184532 | 61 | 287 | 1.7 | 6.1 | 0.00 | 0.00 | 0.00 | 47 | 1020.1 |
| 20260503184019 | 61 | 293 | 0.9 | 6.1 | 0.00 | 0.00 | 0.00 | 51 | 1020.1 |
| 20260503183516 | 60 | 0 | 0.9 | 8.7 | 0.00 | 0.00 | 0.00 | 49 | 1020.2 |
| 20260503183037 | 60 | 283 | 3.5 | 9.6 | 0.00 | 0.00 | 0.00 | 47 | 1020.2 |
| 20260503182515 | 60 | 39 | 2.6 | 9.6 | 0.00 | 0.00 | 0.00 | 46 | 1020.3 |
| 20260503182017 | 62 | 278 | 4.3 | 9.6 | 0.00 | 0.00 | 0.00 | 43 | 1020.4 |
| 20260503181531 | 62 | 69 | 0.0 | 10.4 | 0.00 | 0.00 | 0.00 | 50 | 1020.3 |
| 20260503181016 | 61 | 147 | 2.6 | 10.4 | 0.00 | 0.00 | 0.00 | 49 | 1020.5 |
| 20260503180516 | 61 | 165 | 1.7 | 6.1 | 0.00 | 0.00 | 0.00 | 50 | 1020.6 |
| 20260503180039 | 60 | 167 | 1.7 | 6.1 | 0.00 | 0.00 | 0.00 | 49 | 1020.6 |
| 20260503175515 | 60 | 314 | 1.7 | 3.5 | 0.00 | 0.00 | 0.00 | 50 | 1020.6 |
| 20260503175015 | 60 | 29 | 0.9 | 7.0 | 0.00 | 0.00 | 0.00 | 48 | 1020.6 |
| 20260503174534 | 59 | 82 | 1.7 | 9.6 | 0.00 | 0.00 | 0.00 | 46 | 1020.7 |
| 20260503174015 | 59 | 276 | 5.2 | 10.4 | 0.00 | 0.00 | 0.00 | 49 | 1020.9 |
| 20260503173515 | 59 | 268 | 4.3 | 10.4 | 0.00 | 0.00 | 0.00 | 47 | 1020.8 |
| 20260503173041 | 59 | 326 | 1.7 | 6.1 | 0.00 | 0.00 | 0.00 | 49 | 1020.9 |
| 20260503172516 | 60 | 70 | 1.7 | 6.1 | 0.00 | 0.00 | 0.00 | 48 | 1020.9 |
| 20260503172016 | 59 | 0 | 3.5 | 6.1 | 0.00 | 0.00 | 0.00 | 46 | 1021.0 |
| 20260503171540 | 59 | 283 | 0.9 | 6.1 | 0.00 | 0.00 | 0.00 | 48 | 1021.2 |
| 20260503171016 | 59 | 0 | 1.7 | 7.0 | 0.00 | 0.00 | 0.00 | 48 | 1021.1 |
| 20260503170516 | 59 | 236 | 2.6 | 7.0 | 0.00 | 0.00 | 0.00 | 49 | 1021.3 |
| 20260503150516 | 55 | 271 | 1.7 | 8.7 | 0.00 | 0.00 | 0.00 | 51 | 1022.2 |
| 20260503131014 | 51 | 0 | 0.0 | 3.5 | 0.00 | 0.00 | 0.00 | 62 | 1022.1 |
| 20260503130515 | 51 | 105 | 0.0 | 3.5 | 0.00 | 0.00 | 0.00 | 70 | 1022.1 |
| 20260503110516 | 40 | 0 | 0.0 | 0.0 | 0.00 | 0.00 | 0.00 | 86 | 1020.7 |
| 20260503081543 | 43 | 357 | 1.7 | 2.6 | 0.00 | 0.00 | 0.00 | 79 | 1019.4 |
| 20260503081016 | 43 | 6 | 1.7 | 2.6 | 0.00 | 0.00 | 0.00 | 81 | 1019.2 |
| 20260503080516 | 42 | 16 | 0.0 | 0.9 | 0.00 | 0.00 | 0.00 | 82 | 1019.2 |
| 20260503072517 | 44 | 0 | 0.0 | 0.0 | 0.00 | 0.00 | 0.00 | 81 | 1019.1 |
| 20260503072018 | 44 | 0 | 0.0 | 0.0 | 0.00 | 0.00 | 0.00 | 80 | 1019.1 |
| 20260503071535 | 44 | 0 | 0.0 | 0.0 | 0.00 | 0.00 | 0.00 | 80 | 1019.1 |
| 20260503071016 | 44 | 0 | 0.0 | 0.0 | 0.00 | 0.00 | 0.00 | 79 | 1019.0 |
| 20260503070517 | 45 | 0 | 0.0 | 0.0 | 0.00 | 0.00 | 0.00 | 79 | 1019.0 |
| 20260503055016 | 47 | 13 | 0.0 | 1.7 | 0.00 | 0.00 | 0.00 | 73 | 1018.9 |
| 20260503054541 | 47 | 0 | 0.0 | 0.9 | 0.00 | 0.00 | 0.00 | 74 | 1018.8 |
| 20260503054015 | 47 | 11 | 0.0 | 0.9 | 0.00 | 0.00 | 0.00 | 73 | 1018.9 |
| 20260503053515 | 47 | 0 | 0.0 | 0.9 | 0.00 | 0.00 | 0.00 | 72 | 1018.9 |
| 20260503053030 | 47 | 0 | 0.0 | 0.9 | 0.00 | 0.00 | 0.00 | 71 | 1018.9 |
| 20260503052516 | 47 | 0 | 0.0 | 0.9 | 0.00 | 0.00 | 0.00 | 72 | 1018.9 |
| 20260503052013 | 47 | 0 | 0.0 | 1.7 | 0.00 | 0.00 | 0.00 | 73 | 1018.9 |
| 20260503051531 | 47 | 8 | 0.9 | 2.6 | 0.00 | 0.00 | 0.00 | 73 | 1018.8 |
| 20260503051016 | 47 | 14 | 0.9 | 2.6 | 0.00 | 0.00 | 0.00 | 73 | 1018.8 |
| 20260503050517 | 47 | 23 | 0.0 | 0.9 | 0.00 | 0.00 | 0.00 | 74 | 1018.6 |
| 20260503050035 | 47 | 0 | 0.0 | 1.7 | 0.00 | 0.00 | 0.00 | 75 | 1018.7 |
| 20260503045516 | 46 | 340 | 0.0 | 1.7 | 0.00 | 0.00 | 0.00 | 75 | 1018.6 |
| 20260503045017 | 47 | 359 | 0.9 | 1.7 | 0.00 | 0.00 | 0.00 | 76 | 1018.6 |
| 20260503044535 | 47 | 8 | 0.9 | 1.7 | 0.00 | 0.00 | 0.00 | 76 | 1018.6 |
| 20260503044015 | 47 | 2 | 0.0 | 0.9 | 0.00 | 0.00 | 0.00 | 73 | 1018.4 |
| 20260503043515 | 47 | 0 | 0.0 | 0.9 | 0.00 | 0.00 | 0.00 | 73 | 1018.5 |
| 20260503043032 | 47 | 0 | 0.0 | 1.7 | 0.00 | 0.00 | 0.00 | 74 | 1018.4 |
| 20260503042515 | 47 | 335 | 0.9 | 1.7 | 0.00 | 0.00 | 0.00 | 74 | 1018.4 |
| 20260503042016 | 47 | 23 | 0.0 | 0.9 | 0.00 | 0.00 | 0.00 | 74 | 1018.3 |
| 20260503041532 | 47 | 352 | 0.0 | 1.7 | 0.00 | 0.00 | 0.00 | 72 | 1018.3 |
| 20260503041015 | 47 | 0 | 0.0 | 1.7 | 0.00 | 0.00 | 0.00 | 71 | 1018.4 |
| 20260503040518 | 47 | 321 | 0.0 | 1.7 | 0.00 | 0.00 | 0.00 | 73 | 1018.2 |
| 20260503040034 | 47 | 340 | 0.0 | 1.7 | 0.00 | 0.00 | 0.00 | 74 | 1018.2 |
| 20260503035517 | 46 | 350 | 0.0 | 1.7 | 0.00 | 0.00 | 0.00 | 74 | 1018.2 |
| 20260503035016 | 47 | 5 | 0.9 | 1.7 | 0.00 | 0.00 | 0.00 | 75 | 1018.2 |
| 20260503034534 | 46 | 334 | 0.9 | 0.9 | 0.00 | 0.00 | 0.00 | 75 | 1018.2 |
| 20260503034018 | 46 | 321 | 0.0 | 0.9 | 0.00 | 0.00 | 0.00 | 75 | 1018.2 |
| 20260503033514 | 46 | 0 | 0.0 | 1.7 | 0.00 | 0.00 | 0.00 | 76 | 1018.2 |
| 20260503033042 | 46 | 0 | 0.0 | 1.7 | 0.00 | 0.00 | 0.00 | 76 | 1018.1 |
| 20260503032515 | 46 | 0 | 0.0 | 0.9 | 0.00 | 0.00 | 0.00 | 75 | 1018.1 |
| 20260503032014 | 46 | 356 | 0.0 | 0.9 | 0.00 | 0.00 | 0.00 | 75 | 1018.1 |
| 20260503031533 | 46 | 0 | 0.0 | 0.9 | 0.00 | 0.00 | 0.00 | 76 | 1018.1 |
| 20260503031016 | 46 | 21 | 0.0 | 0.9 | 0.00 | 0.00 | 0.00 | 75 | 1018.1 |
| 20260503030515 | 46 | 21 | 0.0 | 0.9 | 0.00 | 0.00 | 0.00 | 74 | 1018.0 |
| 20260503030034 | 47 | 0 | 0.0 | 0.9 | 0.00 | 0.00 | 0.00 | 74 | 1018.0 |
| 20260503025515 | 47 | 20 | 0.0 | 0.9 | 0.00 | 0.00 | 0.00 | 74 | 1018.0 |
| 20260503025015 | 47 | 20 | 0.0 | 0.9 | 0.00 | 0.00 | 0.00 | 74 | 1017.9 |
| 20260503024538 | 47 | 12 | 0.0 | 0.9 | 0.00 | 0.00 | 0.00 | 73 | 1017.9 |
| 20260503024015 | 47 | 0 | 0.0 | 2.6 | 0.00 | 0.00 | 0.00 | 73 | 1017.9 |
| 20260503023516 | 47 | 345 | 0.0 | 2.6 | 0.00 | 0.00 | 0.00 | 72 | 1017.8 |
| 20260503023033 | 47 | 8 | 0.9 | 2.6 | 0.00 | 0.00 | 0.00 | 72 | 1017.8 |
| 20260503022515 | 47 | 15 | 0.9 | 2.6 | 0.00 | 0.00 | 0.00 | 72 | 1017.6 |
| 20260503022014 | 47 | 25 | 0.9 | 1.7 | 0.00 | 0.00 | 0.00 | 71 | 1017.6 |
| 20260503021533 | 47 | 34 | 0.9 | 2.6 | 0.00 | 0.00 | 0.00 | 70 | 1017.6 |
| 20260503021017 | 48 | 34 | 0.9 | 5.2 | 0.00 | 0.00 | 0.00 | 69 | 1017.7 |
| 20260503020517 | 49 | 8 | 0.9 | 5.2 | 0.00 | 0.00 | 0.00 | 67 | 1017.6 |
| 20260503020034 | 49 | 329 | 1.7 | 5.2 | 0.00 | 0.00 | 0.00 | 68 | 1017.5 |
| 20260503015517 | 49 | 15 | 1.7 | 4.3 | 0.00 | 0.00 | 0.00 | 66 | 1017.4 |
| 20260503015016 | 49 | 339 | 2.6 | 4.3 | 0.00 | 0.00 | 0.00 | 65 | 1017.3 |
| 20260503014546 | 50 | 337 | 1.7 | 4.3 | 0.00 | 0.00 | 0.00 | 65 | 1017.4 |
| 20260503014016 | 49 | 349 | 3.5 | 4.3 | 0.00 | 0.00 | 0.00 | 65 | 1017.3 |
| 20260503013516 | 49 | 6 | 2.6 | 4.3 | 0.00 | 0.00 | 0.00 | 66 | 1017.2 |
| 20260503013037 | 49 | 335 | 2.6 | 4.3 | 0.00 | 0.00 | 0.00 | 66 | 1017.2 |
| 20260503012517 | 49 | 1 | 1.7 | 3.5 | 0.00 | 0.00 | 0.00 | 67 | 1017.1 |
| 20260503012015 | 49 | 353 | 1.7 | 3.5 | 0.00 | 0.00 | 0.00 | 67 | 1017.0 |
| 20260503011534 | 50 | 349 | 0.9 | 3.5 | 0.00 | 0.00 | 0.00 | 65 | 1017.1 |
| 20260503011016 | 50 | 349 | 1.7 | 2.6 | 0.00 | 0.00 | 0.00 | 63 | 1017.0 |
| 20260503010516 | 50 | 27 | 2.6 | 2.6 | 0.00 | 0.00 | 0.00 | 64 | 1016.8 |
| 20260503010046 | 51 | 6 | 0.9 | 3.5 | 0.00 | 0.00 | 0.00 | 62 | 1016.7 |
| 20260503005516 | 51 | 15 | 1.7 | 3.5 | 0.00 | 0.00 | 0.00 | 61 | 1016.7 |
| 20260503005016 | 52 | 359 | 0.9 | 5.2 | 0.00 | 0.00 | 0.00 | 60 | 1016.6 |
| 20260503004533 | 52 | 327 | 0.9 | 5.2 | 0.00 | 0.00 | 0.00 | 59 | 1016.5 |
| 20260503004015 | 52 | 331 | 1.7 | 5.2 | 0.00 | 0.00 | 0.00 | 58 | 1016.4 |
| 20260503003517 | 53 | 20 | 2.6 | 4.3 | 0.00 | 0.00 | 0.00 | 58 | 1016.4 |
| 20260503003031 | 53 | 348 | 2.6 | 5.2 | 0.00 | 0.00 | 0.00 | 57 | 1016.4 |
| 20260503002515 | 53 | 343 | 3.5 | 5.2 | 0.00 | 0.00 | 0.00 | 56 | 1016.4 |
| 20260503002015 | 54 | 328 | 3.5 | 7.0 | 0.00 | 0.00 | 0.00 | 56 | 1016.3 |
| 20260503001533 | 54 | 1 | 3.5 | 7.0 | 0.00 | 0.00 | 0.00 | 55 | 1016.3 |
| 20260503001017 | 55 | 340 | 4.3 | 7.8 | 0.00 | 0.00 | 0.00 | 54 | 1016.2 |
| 20260503000520 | 55 | 318 | 4.3 | 7.8 | 0.00 | 0.00 | 0.00 | 52 | 1016.1 |
| 20260503000037 | 56 | 338 | 4.3 | 7.0 | 0.00 | 0.00 | 0.00 | 53 | 1016.0 |
| 20260502235516 | 56 | 340 | 4.3 | 11.3 | 0.00 | 0.00 | 0.00 | 51 | 1016.0 |
| 20260502235017 | 56 | 7 | 4.3 | 11.3 | 0.00 | 0.00 | 0.00 | 50 | 1015.8 |
| 20260502234540 | 57 | 10 | 5.2 | 11.3 | 0.00 | 0.00 | 0.00 | 50 | 1015.8 |
| 20260502234017 | 57 | 320 | 7.0 | 11.3 | 0.00 | 0.00 | 0.00 | 49 | 1015.8 |
| 20260502233516 | 57 | 16 | 3.5 | 11.3 | 0.00 | 0.00 | 0.00 | 50 | 1015.8 |
| 20260502233033 | 57 | 307 | 6.1 | 11.3 | 0.00 | 0.00 | 0.00 | 49 | 1015.7 |
| 20260502232515 | 57 | 354 | 6.1 | 11.3 | 0.00 | 0.00 | 0.00 | 48 | 1015.7 |
| 20260502232016 | 57 | 316 | 5.2 | 12.2 | 0.00 | 0.00 | 0.00 | 47 | 1015.7 |
| 20260502231534 | 57 | 305 | 5.2 | 12.2 | 0.00 | 0.00 | 0.00 | 46 | 1015.7 |
| 20260502231016 | 58 | 315 | 4.3 | 9.6 | 0.00 | 0.00 | 0.00 | 45 | 1015.6 |
| 20260502230516 | 58 | 24 | 5.2 | 13.0 | 0.00 | 0.00 | 0.00 | 47 | 1015.6 |
| 20260502230032 | 58 | 349 | 5.2 | 13.0 | 0.00 | 0.00 | 0.00 | 47 | 1015.6 |
| 20260502225515 | 58 | 326 | 7.8 | 13.0 | 0.00 | 0.00 | 0.00 | 46 | 1015.5 |
| 20260502225014 | 58 | 13 | 3.5 | 9.6 | 0.00 | 0.00 | 0.00 | 45 | 1015.5 |
| 20260502224532 | 58 | 348 | 5.2 | 9.6 | 0.00 | 0.00 | 0.00 | 46 | 1015.5 |
| 20260502224015 | 58 | 311 | 4.3 | 10.4 | 0.00 | 0.00 | 0.00 | 47 | 1015.6 |
| 20260502223515 | 58 | 315 | 6.1 | 10.4 | 0.00 | 0.00 | 0.00 | 44 | 1015.6 |
| 20260502223037 | 59 | 312 | 6.1 | 10.4 | 0.00 | 0.00 | 0.00 | 43 | 1015.5 |
| 20260502222515 | 59 | 305 | 2.6 | 10.4 | 0.00 | 0.00 | 0.00 | 45 | 1015.5 |
| 20260502222017 | 58 | 339 | 5.2 | 8.7 | 0.00 | 0.00 | 0.00 | 43 | 1015.4 |
| 20260502221531 | 59 | 340 | 5.2 | 8.7 | 0.00 | 0.00 | 0.00 | 43 | 1015.3 |
| 20260502221016 | 58 | 323 | 5.2 | 9.6 | 0.00 | 0.00 | 0.00 | 43 | 1015.3 |
| 20260502220516 | 58 | 332 | 5.2 | 11.3 | 0.00 | 0.00 | 0.00 | 45 | 1015.3 |
| 20260502220034 | 58 | 330 | 7.0 | 11.3 | 0.00 | 0.00 | 0.00 | 46 | 1015.2 |
| 20260502215519 | 58 | 300 | 4.3 | 8.7 | 0.00 | 0.00 | 0.00 | 46 | 1015.3 |
| 20260502215016 | 58 | 338 | 3.5 | 8.7 | 0.00 | 0.00 | 0.00 | 45 | 1015.1 |
| 20260502214533 | 58 | 34 | 4.3 | 9.6 | 0.00 | 0.00 | 0.00 | 45 | 1015.0 |
| 20260502214015 | 58 | 34 | 7.0 | 11.3 | 0.00 | 0.00 | 0.00 | 44 | 1015.1 |
| 20260502213516 | 59 | 24 | 6.1 | 11.3 | 0.00 | 0.00 | 0.00 | 44 | 1015.1 |
| 20260502213033 | 59 | 11 | 4.3 | 9.6 | 0.00 | 0.00 | 0.00 | 45 | 1015.0 |